Location: Peterborough
(44.3091°N, 78.3197°W)
Time: 16:08:48
(UTC-04:00)

Transit 4A - Pass Details

Date: 29 March 2023
Orbit: 864 x 980 km, 66.8° (Epoch: 04 June)

Event Time Altitude Azimuth Distance (km) Brightness Sun altitude
Rises 05:51:40 0° 185° (S) 3,428 10.6 -12.8°
Reaches altitude 10° 05:54:16 10° 177° (S) 2,498 10.0 -12.4°
Maximum altitude 05:59:30 37° 111° (ESE) 1,322 9.2 -11.5°
Drops below altitude 10° 06:04:51 10° 46° (NE) 2,552 11.3 -10.6°
Sets 06:07:32 0° 39° (NE) 3,512 11.9 -10.1°
